Location: Bremen
(53.0793°N, 8.8017°E)
Time: 16:37:23
(UTC+01:00)

Vanguard 1 Rocket - Pass Details

Date: 06 December 2021
Orbit: 651 x 4224 km, 34.3° (Epoch: 21 January)

Event Time Altitude Azimuth Distance (km) Brightness Sun altitude
Rises 07:09:43 0° 266° (W) 5,932 - -10.2°
Exits shadow 07:10:42 - 264° (W) 5,777 11.0 -10.1°
Reaches altitude 10° 07:13:40 10° 256° (WSW) 5,375 10.9 -9.7°
Maximum altitude 07:27:56 32° 202° (SSW) 5,028 11.2 -7.7°
Drops below altitude 10° 07:47:50 10° 151° (SSE) 7,418 13.1 -5.1°
Sets 07:54:48 0° 143° (SE) 8,422 13.9 -4.2°
